﻿気象観測野帳　（高山試験地）,,,,,,,,,,,,
年,月,日,曜日,天候,最高気温[℃],最低気温[℃],気温(水銀計)[℃],気温(自記計)[℃],降水量[mm],新雪量[cm],積雪量[cm],備考
2024,1,1,月,,,,,,,,,
2024,1,2,火,,,,,,,,,
2024,1,3,水,,,,,,,,,
2024,1,4,木,晴,5.4 ,-6.8 ,-0.8 ,-1.0 ,,18.0 ,32.0 ,
2024,1,5,金,晴,1.9 ,-7.5 ,1.9 ,1.8 ,,0.5 ,28.0 ,
2024,1,6,土,,,,,,,,,
2024,1,7,日,,,,,,,,,
2024,1,8,月,,,,,,,,,
2024,1,9,火,晴,4.8 ,-12.8 ,-4.0 ,-4.7 ,,27.0 ,46.0 ,
2024,1,10,水,曇,-0.4 ,-3.9 ,-1.5 ,-1.8 ,,0.5 ,40.0 ,
2024,1,11,木,曇,-0.9 ,-8.1 ,-4.3 ,-5.0 ,,1.0 ,40.0 ,
2024,1,12,金,曇,1.0 ,-7.5 ,-2.6 ,-3.2 ,,0.0 ,37.0 ,
2024,1,13,土,,,,,,,,,
2024,1,14,日,,,,,,,,,
2024,1,15,月,曇,1.9 ,-13.7 ,-5.5 ,-6.3 ,,22.0 ,51.0 ,
2024,1,16,火,雪,-4.6 ,-10.7 ,-10.1 ,-11.2 ,,27.0 ,68.0 ,
2024,1,17,水,晴,-0.8 ,-11.7 ,-0.8 ,-1.4 ,,3.0 ,63.0 ,
2024,1,18,木,,,,,,,,,
2024,1,19,金,雨,4.7 ,-2.7 ,-1.6 ,-2.1 ,,0.0 ,44.0 ,
2024,1,20,土,,,,,,,,,
2024,1,21,日,,,,,,,,,
2024,1,22,月,晴,6.3 ,-3.2 ,1.1 ,0.8 ,,0.0 ,28.0 ,9:45
2024,1,23,火,雪,3.8 ,-5.6 ,-5.0 ,-5.8 ,,5.0 ,29.0 ,
2024,1,24,水,雪,-1.2 ,-10.7 ,-10.0 ,-11.0 ,,23.0 ,53.0 ,
2024,1,25,木,雪,-8.0 ,-11.4 ,-8.3 ,-9.8 ,,43.0 ,82.0 ,
2024,1,26,金,雪,-7.0 ,-10.2 ,-7.0 ,-8.3 ,,6.0 ,69.0 ,
2024,1,27,土,,,,,,,,,
2024,1,28,日,,,,,,,,,
2024,1,29,月,晴,-0.7 ,-10.8 ,-3.5 ,-4.1 ,,1.5 ,53.0 ,
2024,1,30,火,晴,1.1 ,-7.8 ,-0.5 ,-1.1 ,,0.0 ,50.0 ,
2024,1,31,水,曇,3.0 ,-5.8 ,0.4 ,-0.5 ,,0.0 ,48.0 ,
2024,2,1,木,曇,2.4 ,-0.5 ,-0.5 ,-1.1 ,,0.0 ,42.0 ,
2024,2,2,金,曇,-0.2 ,-9.0 ,-7.5 ,-8.3 ,,0.0 ,40.0 ,
2024,2,3,土,,,,,,,,,
2024,2,4,日,,,,,,,,,
2024,2,5,月,雪,0.8 ,-11.8 ,-4.1 ,-5.3 ,,3.0 ,42.0 ,
2024,2,6,火,晴,-2.1 ,-6.3 ,-2.1 ,-3.3 ,,24.0 ,61.0 ,
2024,2,7,水,晴,-1.4 ,-9.4 ,-2.8 ,-3.8 ,,1.0 ,59.0 ,
2024,2,8,木,曇,-0.9 ,-7.5 ,-4.8 ,-5.7 ,,1.0 ,58.0 ,
2024,2,9,金,晴,-2.0 ,-10.7 ,-3.8 ,-4.6 ,,0.0 ,56.0 ,
2024,2,10,土,,,,,,,,,
2024,2,11,日,,,,,,,,,
2024,2,12,月,,,,,,,,,
2024,2,13,火,晴,3.6 ,-8.5 ,3.6 ,3.1 ,,10.0 ,63.0 ,
2024,2,14,水,晴,7.9 ,-3.2 ,4.6 ,4.2 ,,0.0 ,58.0 ,10:15
2024,2,15,木,曇,8.6 ,1.5 ,4.4 ,3.7 ,,0.0 ,52.0 ,
2024,2,16,金,曇,6.2 ,-5.0 ,-2.9 ,-4.0 ,,1.0 ,42.0 ,
2024,2,17,土,,,,,,,,,
2024,2,18,日,,,,,,,,,
2024,2,19,月,曇,9.1 ,-5.9 ,6.2 ,6.4 ,,0.0 ,34.0 ,
2024,2,20,火,雨,7.5 ,5.7 ,6.1 ,6.2 ,,0.0 ,25.0 ,
2024,2,21,水,雨,9.8 ,2.4 ,6.4 ,6.8 ,,0.0 ,19.0 ,
2024,2,22,木,雨,7.6 ,-1.9 ,-2.5 ,-2.8 ,,0.0 ,16.0 ,
2024,2,23,金,雪,-2.1 ,-5.5 ,-4.7 ,-5.4 ,,5.0 ,15.0 ,
2024,2,24,土,,,,,,,,,
2024,2,25,日,,,,,,,,,
2024,2,26,月,曇,0.9 ,-9.9 ,-3.6 ,-4.5 ,,10.0 ,22.0 ,
2024,2,27,火,,,,,,,,,
2024,2,28,水,晴,-1.5 ,-9.0 ,-2.0 ,-2.3 ,,8.0 ,30.0 ,
2024,2,29,木,曇,2.0 ,-7.9 ,2.0 ,1.8 ,,0.0 ,27.0 ,
2024,3,1,金,雪,3.9 ,-2.9 ,-2.6 ,-3.2 ,,15.0 ,38.0 ,
2024,3,2,土,,,,,,,,,
2024,3,3,日,,,,,,,,,
2024,3,4,月,雪,2.7 ,-11.6 ,-4.2 ,-5.1 ,,22.0 ,54.0 ,
2024,3,5,火,曇,0.4 ,-6.6 ,-0.7 ,-1.8 ,,1.0 ,50.0 ,
2024,3,6,水,雪,-0.5 ,-2.1 ,-2.6 ,-3.7 ,,8.0 ,55.0 ,
2024,3,7,木,曇,-1.8 ,-6.7 ,-5.2 ,-6.4 ,,1.0 ,52.0 ,
2024,3,8,金,晴,1.0 ,-7.4 ,0.8 ,0.4 ,,0.0 ,50.0 ,
2024,3,9,土,,,,,,,,,
2024,3,10,日,,,,,,,,,
2024,3,11,月,晴,1.9 ,-11.6 ,1.9 ,2.2 ,,16.0 ,66.0 ,
2024,3,12,火,雪,5.7 ,-2.1 ,0.7 ,0.2 ,,5.0 ,66.0 ,11:00
2024,3,13,水,雪,1.2 ,-5.1 ,-4.9 ,-5.2 ,,32.0 ,89.0 ,
2024,3,14,木,晴,0.3 ,-9.5 ,0.3 ,0.4 ,,1.0 ,85.0 ,
2024,3,15,金,晴,4.4 ,-5.8 ,4.0 ,3.5 ,,0.0 ,77.0 ,
2024,3,16,土,,,,,,,,,
2024,3,17,日,,,,,,,,,
2024,3,18,月,雪,10.1 ,-6.6 ,-5.8 ,-6.5 ,,1.0 ,62.0 ,
2024,3,19,火,晴,-1.5 ,-11.4 ,-1.5 ,-1.9 ,,1.0 ,62.0 ,
2024,3,20,水,,,,,,,,,
2024,3,21,木,雪,3.0 ,-10.9 ,-6.7 ,-7.2 ,,50.0 ,111.0 ,
2024,3,22,金,晴,-1.6 ,-10.6 ,-3.4 ,-3.9 ,,6.0 ,107.0 ,
2024,3,23,土,,,,,,,,,
2024,3,24,日,,,,,,,,,
2024,3,25,月,雨,10.7 ,-5.6 ,4.2 ,4.5 ,,3.0 ,82.0 ,13:00
2024,3,26,火,,,,,,,,,
2024,3,27,水,晴,6.1 ,-3.8 ,-0.4 ,0.2 ,,2.0 ,72.0 ,
2024,3,28,木,晴,5.0 ,-3.3 ,4.7 ,5.1 ,,0.0 ,69.0 ,
2024,3,29,金,雨,6.9 ,2.5 ,5.7 ,5.5 ,,0.0 ,59.0 ,
2024,3,30,土,,,,,,,,,
2024,3,31,日,,,,,,,,,
